Probability
48 58 68 77 74 74 68 65 58 58 45 45 48 48 45 45 45 45 45 32 32 32 35 29 19 19 19 10 13 16 13 13 10 10 6 3 3 0 0 0 0 3 3
52 55 71 71 68 65 68 65 58 52 48 48 48 45 45 42 42 42 35 32 32 29 29 23 23 19 19 13 13 16 10 10 10 10 10 3 3 3 0 0 0 0 3
52 55 71 74 68 61 58 55 55 55 52 48 45 45 42 42 39 35 32 32 29 26 23 23 23 23 19 19 13 10 6 10 10 10 6 3 0 3 0 0 0 0 0
48 52 52 71 65 61 58 52 48 52 48 39 39 42 42 35 35 35 32 32 26 26 19 23 23 26 13 13 13 6 6 6 6 3 0 0 0 0 0 0 0 0 0
45 39 55 71 65 65 58 52 48 42 42 39 39 39 39 35 32 29 29 29 23 19 19 23 16 16 19 16 13 6 6 6 3 3 0 0 0 0 0 0 3 0 0
42 35 55 65 65 58 55 45 45 42 39 39 39 42 42 29 29 26 26 19 19 19 16 16 10 10 10 10 10 3 3 3 3 0 0 0 0 3 0 6 6 6 6
42 39 45 58 55 55 48 45 45 42 45 52 45 39 32 32 29 23 23 19 16 19 13 10 10 10 10 6 6 3 3 0 0 0 0 0 0 0 0 0 6 6 6
39 39 45 58 55 48 52 45 48 48 45 45 45 32 29 29 29 23 19 16 13 16 13 6 6 6 6 6 3 3 0 0 0 0 0 0 0 3 0 0 6 3 3
32 26 23 35 48 52 45 48 48 48 48 48 39 35 32 32 32 19 16 13 16 13 13 6 6 6 6 6 3 0 0 0 0 0 0 0 0 0 0 6 3 0 0
29 26 26 23 26 29 32 42 45 45 39 42 35 23 23 19 19 13 10 10 16 13 10 6 6 6 3 0 0 0 0 0 0 0 0 0 3 3 3 0 3 3 3
29 26 23 23 19 23 26 23 23 26 23 23 13 6 6 10 10 10 10 6 6 10 10 6 6 3 0 0 0 0 0 0 0 0 0 0 0 0 0 0 0 3 0
32 26 23 26 16 16 19 16 19 16 6 10 10 6 6 6 6 6 6 6 6 6 6 3 0 0 0 0 0 0 0 0 0 0 0 0 0 0 0 0 0 0 0
29 32 26 23 19 10 13 13 10 10 10 10 6 6 6 6 3 3 3 0 0 0 0 0 0 0 0 0 0 0 0 0 0 0 0 0 0 0 0 0 0 0 0
26 29 23 26 16 13 10 6 13 6 6 3 3 6 6 6 3 0 0 0 0 0 0 0 0 0 0 0 0 0 0 0 0 0 0 0 0 0 0 0 0 0 0
19 26 29 23 10 13 6 6 13 6 3 3 3 3 3 3 0 0 0 0 0 0 0 0 0 0 0 0 0 0 0 0 0 0 0 0 0 0 0 0 0 0 0
16 16 23 19 13 13 10 6 10 6 3 3 3 3 3 0 0 0 0 0 0 0 0 0 0 0 0 0 0 0 0 0 0 0 0 0 0 0 0 0 0 0 0
13 13 16 10 6 10 6 3 6 6 3 3 3 3 0 0 0 0 0 0 0 0 0 0 0 0 0 0 0 0 0 0 0 0 0 0 0 0 0 0 0 0 3
6 10 0 6 3 3 3 3 3 3 3 3 3 3 0 0 0 0 0 0 0 0 0 0 0 0 0 0 0 0 0 0 0 0 0 0 0 0 0 0 0 0 0
0 0 0 0 0 0 0 3 3 3 3 3 3 0 0 0 0 0 0 0 0 0 0 0 0 0 0 0 0 0 0 0 0 0 0 0 0 0 0 0 0 0 0
0 0 0 0 0 0 0 3 3 6 3 0 0 0 0 0 0 0 0 0 0 0 0 0 0 0 0 0 0 0 0 0 0 0 0 0 0 0 0 0 0 0 0
0 0 0 0 0 0 0 0 0 0 0 0 0 0 0 0 0 0 0 0 0 0 0 0 0 0 0 0 0 0 0 0 0 0 0 0 0 0 0 0 0 0 0
0 0 0 0 0 0 0 0 0 0 0 0 0 0 0 0 0 0 0 0 0 0 0 0 0 0 0 0 0 0 0 0 0 0 0 0 0 0 0 0 0 0 0
0 0 0 0 0 0 0 0 0 0 0 0 0 0 0 0 0 0 0 0 0 0 0 0 0 0 0 0 0 0 0 0 0 0 0 0 0 0 0 0 0 0 0
0 0 0 0 0 0 0 0 0 0 0 0 0 0 0 0 0 0 0 0 0 0 0 0 0 0 0 0 0 0 0 0 0 0 0 0 0 0 0 0 0 0 0
0 0 0 0 0 0 0 0 0 0 0 0 0 0 0 0 0 0 0 0 0 0 0 0 0 0 0 0 0 0 0 0 0 0 0 0 0 0 0 0 0 0 0
0 0 0 0 0 0 0 0 0 0 0 0 0 0 0 0 0 0 0 0 0 0 0 0 0 0 0 0 0 0 0 0 0 0 0 0 0 0 0 0 0 0 0
Height
5855 5856 5857 5858 5859 5860 5861 5862 5863 5863 5864 5864 5865 5865 5866 5866 5866 5867 5867 5867 5867 5868 5868 5868 5868 5868 5867 5867 5867 5867 5866 5866 5865 5865 5864 5863 5863 5862 5861 5860 5860 5859 5857
5852 5853 5854 5855 5856 5858 5859 5860 5861 5861 5862 5863 5863 5864 5864 5865 5865 5866 5866 5866 5866 5866 5866 5867 5867 5867 5866 5866 5866 5865 5865 5865 5864 5863 5863 5862 5861 5860 5860 5859 5858 5857 5856
5848 5850 5851 5852 5853 5855 5856 5857 5858 5859 5860 5861 5861 5862 5863 5863 5864 5864 5864 5864 5865 5865 5865 5865 5865 5865 5865 5865 5864 5864 5864 5863 5863 5862 5861 5861 5860 5859 5858 5857 5856 5855 5854
5844 5846 5847 5848 5850 5851 5853 5854 5856 5856 5857 5858 5859 5860 5860 5861 5861 5862 5862 5863 5863 5863 5863 5864 5864 5864 5863 5863 5863 5862 5862 5862 5861 5860 5859 5859 5858 5857 5856 5855 5854 5852 5851
5839 5841 5843 5844 5846 5847 5849 5851 5852 5853 5854 5855 5856 5857 5857 5858 5859 5859 5860 5860 5861 5861 5861 5861 5862 5862 5861 5861 5861 5861 5860 5860 5859 5858 5857 5856 5855 5855 5854 5852 5851 5850 5849
5833 5835 5837 5839 5841 5843 5845 5846 5848 5849 5850 5851 5853 5853 5854 5855 5856 5856 5857 5858 5858 5858 5859 5859 5859 5859 5859 5859 5859 5858 5858 5857 5857 5856 5855 5854 5853 5852 5851 5850 5849 5847 5846
5827 5829 5831 5834 5836 5838 5840 5842 5843 5845 5846 5848 5849 5850 5851 5852 5852 5853 5854 5855 5855 5856 5856 5856 5856 5856 5856 5856 5856 5856 5855 5855 5854 5853 5852 5851 5850 5849 5848 5847 5846 5844 5843
5820 5822 5825 5828 5830 5833 5835 5837 5838 5840 5842 5843 5844 5846 5847 5848 5849 5850 5850 5851 5852 5852 5853 5853 5853 5853 5853 5853 5853 5853 5852 5852 5851 5850 5849 5848 5847 5846 5845 5844 5842 5841 5839
5813 5816 5818 5821 5824 5827 5829 5831 5833 5835 5837 5838 5839 5841 5842 5843 5844 5845 5846 5847 5848 5848 5849 5849 5849 5850 5850 5850 5849 5849 5849 5848 5848 5847 5846 5845 5844 5842 5841 5840 5838 5837 5835
5805 5808 5811 5815 5818 5821 5823 5825 5828 5829 5831 5833 5834 5836 5837 5838 5839 5840 5841 5842 5843 5844 5844 5845 5845 5846 5846 5845 5845 5845 5845 5844 5844 5843 5842 5841 5840 5838 5837 5836 5834 5832 5831
5797 5801 5804 5807 5811 5814 5817 5819 5821 5823 5825 5827 5828 5830 5831 5833 5834 5835 5836 5837 5838 5839 5839 5840 5840 5841 5841 5841 5841 5841 5840 5840 5839 5838 5837 5836 5835 5834 5832 5831 5829 5828 5826
5789 5793 5796 5800 5803 5807 5810 5813 5815 5817 5819 5821 5822 5824 5825 5826 5828 5829 5830 5831 5832 5833 5834 5834 5835 5836 5836 5836 5836 5836 5835 5835 5834 5834 5833 5832 5830 5829 5827 5826 5824 5822 5820
5781 5785 5789 5792 5796 5799 5802 5805 5808 5810 5812 5814 5816 5817 5819 5820 5821 5822 5824 5825 5826 5827 5828 5829 5829 5830 5830 5831 5830 5830 5830 5830 5829 5828 5827 5826 5825 5824 5822 5821 5819 5817 5815
5772 5776 5780 5784 5788 5792 5795 5797 5800 5802 5804 5806 5808 5810 5811 5813 5815 5816 5817 5818 5819 5820 5821 5822 5823 5824 5824 5825 5825 5824 5824 5824 5823 5823 5822 5821 5819 5818 5817 5815 5813 5811 5809
5763 5768 5772 5776 5780 5783 5787 5790 5792 5794 5796 5799 5800 5802 5804 5806 5807 5809 5810 5811 5812 5813 5814 5815 5816 5817 5818 5818 5818 5818 5818 5818 5817 5817 5816 5815 5813 5812 5810 5809 5807 5805 5802
5755 5759 5764 5767 5771 5775 5779 5782 5784 5786 5788 5790 5792 5794 5796 5798 5799 5801 5802 5803 5804 5806 5807 5808 5809 5810 5811 5811 5811 5811 5811 5811 5811 5810 5809 5808 5807 5805 5804 5802 5800 5798 5796
5746 5751 5755 5759 5763 5766 5770 5773 5776 5778 5780 5782 5784 5786 5788 5788 5790 5792 5794 5795 5796 5798 5799 5800 5801 5802 5803 5804 5804 5804 5804 5804 5804 5804 5803 5801 5800 5798 5797 5795 5793 5791 5789
5737 5742 5746 5750 5754 5757 5761 5764 5767 5769 5772 5774 5775 5777 5779 5780 5781 5783 5785 5787 5788 5789 5791 5792 5793 5794 5795 5796 5797 5797 5797 5797 5797 5796 5795 5794 5793 5792 5790 5788 5786 5783 5781
5728 5733 5737 5741 5744 5748 5752 5755 5758 5761 5763 5765 5767 5769 5770 5771 5773 5774 5776 5778 5779 5781 5782 5784 5785 5786 5787 5788 5789 5789 5789 5789 5789 5789 5788 5787 5785 5784 5782 5780 5778 5776 5774
5720 5724 5728 5731 5735 5739 5743 5746 5749 5752 5754 5757 5758 5760 5762 5763 5764 5766 5767 5768 5770 5772 5774 5775 5777 5778 5779 5780 5781 5781 5781 5782 5781 5781 5780 5779 5778 5776 5775 5773 5770 5768 5765
5710 5715 5719 5722 5726 5730 5734 5738 5741 5743 5746 5748 5750 5752 5753 5754 5755 5756 5758 5759 5761 5763 5765 5767 5768 5770 5771 5772 5772 5773 5773 5773 5773 5773 5772 5771 5770 5768 5767 5765 5762 5760 5757
5702 5706 5709 5713 5717 5721 5725 5729 5732 5735 5737 5739 5741 5743 5744 5745 5747 5748 5749 5750 5752 5754 5756 5757 5759 5761 5762 5763 5764 5764 5765 5765 5765 5765 5764 5763 5762 5760 5758 5756 5754 5751 5749
5693 5697 5701 5704 5708 5712 5716 5719 5723 5726 5728 5730 5732 5733 5734 5736 5737 5738 5740 5741 5742 5744 5746 5748 5750 5751 5753 5754 5755 5756 5756 5757 5757 5757 5756 5755 5753 5752 5750 5748 5745 5742 5740
5684 5688 5692 5695 5699 5703 5706 5710 5713 5716 5718 5721 5723 5724 5725 5726 5727 5729 5731 5731 5733 5735 5737 5739 5741 5742 5743 5744 5745 5746 5747 5747 5748 5748 5748 5746 5745 5743 5741 5739 5736 5733 5731
5674 5678 5682 5686 5690 5694 5697 5701 5703 5705 5708 5711 5713 5715 5717 5718 5719 5720 5721 5723 5725 5727 5729 5730 5732 5733 5734 5735 5736 5737 5737 5738 5738 5738 5738 5737 5736 5734 5732 5730 5727 5724 5721
5666 5669 5674 5678 5681 5685 5688 5691 5693 5695 5698 5701 5703 5705 5707 5709 5710 5711 5712 5714 5716 5718 5720 5721 5723 5724 5725 5726 5727 5727 5728 5728 5728 5728 5728 5727 5726 5725 5723 5720 5717 5715 5712
Wind_Speed
16 16 15 14 13 13 13 13 13 12 11 11 10 10 9 9 9 8 8 7 6 5 5 4 4 5 5 5 5 5 6 6 7 7 8 8 9 9 10 10 11 11 12
18 17 17 16 15 15 15 14 14 13 12 12 11 11 11 10 10 9 9 8 7 7 6 6 6 6 6 6 7 7 7 7 8 8 9 10 10 10 11 11 12 12 13
20 19 19 18 17 16 16 16 15 15 14 13 13 13 12 12 11 11 10 9 9 8 8 7 7 7 7 7 8 8 8 8 9 10 10 11 12 12 12 12 13 13 14
22 22 21 20 20 18 17 17 16 16 16 15 15 14 14 13 13 12 12 11 10 10 9 9 9 8 9 9 9 9 10 10 11 11 12 13 13 13 13 14 14 15 15
26 24 23 23 22 21 20 19 18 18 18 17 17 16 15 15 15 14 13 13 12 11 11 10 10 10 10 10 10 11 11 12 12 13 14 14 14 14 15 15 15 16 16
28 27 26 25 24 23 22 21 21 20 20 18 18 18 17 17 16 15 15 14 14 13 12 12 12 12 12 12 12 12 12 13 13 14 15 15 15 15 15 16 16 17 18
31 29 29 27 26 25 25 24 23 22 22 20 19 19 19 19 18 17 17 16 15 15 14 14 14 13 13 13 13 14 14 15 15 15 16 16 16 16 17 17 18 18 19
33 32 31 29 28 28 27 26 25 24 24 22 22 21 21 20 20 19 19 18 18 17 17 16 16 15 15 15 15 15 16 16 16 17 17 17 18 18 18 19 20 20 20
35 34 33 32 31 30 29 28 28 26 26 25 24 23 23 22 22 21 21 20 20 20 19 18 18 18 18 17 17 17 18 18 18 18 19 19 19 20 20 21 21 21 22
36 36 35 34 33 32 31 30 29 29 28 27 26 26 25 24 24 24 23 23 22 22 22 21 20 20 20 20 19 20 20 19 20 20 20 21 21 22 22 22 23 23 23
37 36 36 36 35 34 33 32 31 31 30 30 29 28 27 27 26 26 26 25 25 24 24 23 23 22 22 22 22 22 22 22 22 22 22 23 23 24 24 25 25 25 25
38 37 37 37 36 36 35 34 33 33 32 32 31 30 30 29 28 28 28 27 27 27 26 25 25 25 24 23 24 24 24 24 24 24 24 25 25 25 26 26 26 27 27
39 39 38 38 37 37 36 35 35 34 34 33 33 32 31 31 30 29 29 29 28 28 28 28 27 26 26 26 25 26 26 25 26 26 26 26 27 27 27 27 27 28 29
41 40 40 39 38 38 37 36 36 36 35 35 34 33 33 32 32 32 31 30 30 30 29 29 29 28 28 28 27 27 27 27 27 27 27 28 28 29 29 29 30 29 30
42 41 41 40 40 39 38 37 36 37 37 36 35 34 34 34 33 34 33 32 32 32 32 31 30 30 29 29 29 29 29 28 29 28 29 29 30 30 30 31 32 32 32
42 42 41 41 41 40 39 38 38 38 38 37 36 36 36 36 36 36 35 34 34 34 33 32 32 31 31 31 31 30 30 30 30 30 30 31 31 32 32 32 33 33 34
42 42 42 42 43 42 41 40 39 39 38 37 36 37 37 36 36 37 36 36 36 35 34 34 33 33 33 32 32 32 32 31 32 32 31 31 32 33 33 34 34 35 35
43 43 43 43 43 43 42 42 41 40 39 38 37 37 38 38 38 38 38 38 37 37 36 35 34 35 35 34 34 33 34 33 33 33 32 33 33 34 34 35 35 36 36
43 44 44 43 43 44 43 43 42 41 40 39 39 38 37 38 39 38 38 39 38 38 38 37 37 36 35 35 35 35 35 35 34 34 33 34 34 35 35 36 36 37 37
44 45 45 45 45 45 44 44 42 42 42 40 40 40 39 38 39 40 39 40 40 39 39 39 39 39 37 36 36 37 37 37 36 35 35 35 35 36 36 36 37 37 38
43 45 45 46 45 45 44 44 43 43 42 42 42 40 41 40 39 39 40 42 41 41 41 41 41 40 39 38 38 38 38 39 37 37 37 36 36 36 36 37 38 38 39
43 44 45 44 45 45 45 44 44 44 44 43 42 42 42 42 41 41 40 41 42 42 43 42 41 41 40 40 39 39 39 38 38 37 37 37 36 36 37 38 39 39 39
43 43 44 45 45 45 45 45 45 46 46 45 44 43 43 42 42 42 42 42 43 43 43 43 43 42 41 40 39 39 39 38 37 37 37 37 36 36 37 38 39 39 40
41 42 44 45 45 45 45 45 46 47 46 44 44 43 42 42 41 40 40 41 41 42 42 43 43 42 41 41 40 40 40 39 39 38 38 37 37 38 38 40 40 40 41
42 41 42 44 45 45 45 45 46 45 46 45 44 45 44 42 41 40 39 39 39 40 41 41 41 41 40 40 40 40 40 41 41 40 39 38 39 39 40 40 41 41 41
41 42 41 43 45 45 45 46 45 44 44 44 44 43 43 42 41 40 39 39 39 40 40 40 40 41 41 42 41 41 41 41 41 41 40 40 40 40 40 40 41 42 42
Wind_Direction
249 249 249 248 246 245 242 241 241 240 240 239 239 238 239 238 238 235 234 237 242 248 256 264 275 286 294 300 304 307 313 318 321 323 323 323 323 323 323 323 323 322 320
250 249 248 247 245 245 244 244 243 242 242 241 241 241 241 241 242 241 242 243 246 250 255 261 269 277 285 294 300 301 304 310 315 315 316 317 317 317 317 318 319 319 318
249 247 246 246 245 245 245 245 245 244 243 243 243 242 240 241 242 244 246 247 250 254 257 261 268 274 283 291 297 299 301 305 310 312 313 313 313 313 313 313 313 315 316
248 247 245 244 244 243 244 246 246 245 245 245 245 245 243 243 243 245 247 250 253 257 259 263 269 275 282 288 293 297 299 302 305 309 311 309 309 309 309 309 310 312 314
247 246 244 243 243 242 243 245 246 248 248 246 245 246 246 246 246 246 248 250 253 256 260 265 269 275 281 286 291 294 297 299 302 305 308 307 306 307 307 308 309 310 311
246 245 244 243 242 241 242 244 246 248 248 248 247 247 248 248 247 248 250 251 253 256 260 264 269 274 279 283 286 290 293 296 298 301 303 306 306 306 306 306 307 308 309
245 244 243 241 240 241 242 243 244 247 248 247 248 248 249 250 250 252 253 254 256 258 260 264 269 274 277 280 283 286 290 293 295 298 301 302 304 304 304 304 305 306 307
244 242 242 240 240 240 242 243 244 246 248 247 247 248 249 250 251 253 255 256 257 260 262 265 269 274 277 280 282 286 289 291 294 297 299 301 301 301 301 302 302 304 305
242 242 242 241 240 241 242 244 245 246 248 249 248 247 248 250 251 253 254 256 258 260 262 265 268 272 276 279 282 284 286 288 291 293 295 297 298 300 299 300 301 302 303
241 241 241 241 240 241 242 245 247 247 248 250 250 250 250 251 252 254 256 258 260 261 264 266 269 272 275 278 281 283 284 286 289 292 293 294 295 297 298 298 299 301 302
240 240 240 241 240 241 242 244 246 247 249 250 251 251 252 252 254 255 257 259 261 262 265 267 270 272 275 278 280 282 284 286 288 290 292 293 294 295 296 297 297 299 300
240 239 240 240 240 241 242 244 245 247 249 250 251 252 252 253 254 256 258 260 261 263 264 267 269 272 274 276 279 281 283 285 286 289 290 291 292 294 295 295 296 297 299
238 238 239 240 241 242 243 244 246 247 248 250 251 252 253 254 254 255 257 259 261 263 264 266 269 271 274 275 277 280 282 285 286 288 289 289 291 292 292 293 295 296 298
236 237 238 239 241 242 243 245 246 248 249 250 251 251 252 254 255 256 257 259 261 263 264 265 267 270 272 274 276 278 281 284 286 287 287 289 290 291 291 292 293 295 297
235 236 238 239 240 242 243 245 246 248 249 249 250 250 252 254 256 257 258 259 261 263 264 265 266 268 270 272 275 277 280 283 285 286 287 288 289 290 290 291 293 294 296
235 235 237 240 241 241 243 245 246 247 248 248 250 251 252 254 255 256 258 259 260 262 263 265 266 267 269 271 273 276 279 281 283 285 286 287 287 288 290 290 291 293 295
236 236 237 240 241 242 242 245 246 246 248 250 251 252 253 254 255 257 258 258 260 261 263 264 266 267 268 270 272 274 277 280 282 284 285 286 287 288 289 290 291 291 294
236 236 237 239 241 242 243 244 245 246 248 249 251 253 253 254 255 256 258 258 259 260 262 264 265 266 267 269 271 274 276 279 281 283 284 286 287 287 289 290 291 292 294
236 236 238 240 241 241 242 242 244 246 247 249 251 254 256 256 256 256 258 258 258 259 261 263 264 265 267 269 271 273 276 278 280 282 284 285 287 287 288 289 291 292 294
236 237 239 240 240 241 241 242 243 245 247 249 252 253 255 258 257 256 256 257 257 258 261 263 264 265 266 269 271 273 275 277 279 281 283 284 286 287 287 289 291 293 294
239 239 240 240 240 240 240 243 243 245 248 250 252 253 254 256 257 256 256 257 257 259 260 261 263 265 265 268 271 273 276 277 278 280 282 283 285 286 286 288 290 292 294
240 240 241 242 242 241 241 243 245 247 248 249 252 254 256 256 256 257 259 257 257 258 259 260 262 264 265 268 271 274 276 277 277 279 281 283 285 285 287 289 290 292 294
243 243 242 242 242 242 242 244 247 249 250 250 251 253 256 256 256 258 259 258 257 257 258 260 261 263 264 267 270 273 275 276 276 279 281 282 284 285 287 289 290 292 294
243 243 243 242 243 243 244 245 248 249 250 252 253 254 256 257 257 258 258 258 258 257 257 260 261 263 264 266 269 271 274 275 276 279 280 281 283 285 287 289 291 292 295
245 245 244 242 242 243 244 246 248 250 251 252 254 255 256 259 260 260 258 257 258 259 260 262 261 263 264 266 269 272 274 275 277 278 279 280 282 285 287 289 291 292 294
245 244 243 243 243 244 245 246 248 250 251 251 253 255 256 258 258 258 258 258 258 260 261 262 262 264 266 267 269 271 273 275 278 278 278 280 281 284 286 289 291 292 294